Location: Ehrke Reservoir
(40.0279°N, 99.6641°W)
Time: 17:58:46
(UTC+00:00)

Cosmos 1727 Rocket - Pass Details

Date: 20 January 2020
Orbit: 960 x 997 km, 82.9° (Epoch: 27 February)

Event Time Altitude Azimuth Distance (km) Brightness Sun altitude
Rises 01:28:40 0° 358° (N) 3,666 6.9 -20.2°
Reaches altitude 10° 01:31:18 10° 3° (N) 2,711 6.2 -20.7°
Maximum altitude 01:37:17 50° 79° (ENE) 1,214 4.1 -21.8°
Drops below altitude 10° 01:43:13 10° 153° (SSE) 2,686 6.1 -22.9°
Sets 01:45:48 0° 159° (SSE) 3,628 6.9 -23.4°
